Location: Killam
(52.7910°N, 111.8608°W)
Time: 12:02:10
(UTC+00:00)

AO-85 - Visible Passes

Search period start: 14 May 2025 00:00
Search period end: 24 May 2025 00:00
Orbit: 489 x 719 km, 64.8° (Epoch: 13 May)

Date Brightness Start Highest point End Pass type
(mag) Time Alt. Az. Time Alt. Az. Time Alt. Az.
14 May ? 04:52:15 10° NW 04:56:20 29° NNE 05:00:08 10° E visible
14 May ? 06:31:53 10° NW 06:36:26 81° SW 06:38:03 37° SSE visible
14 May ? 08:12:59 10° W 08:14:51 14° WSW 08:14:51 14° WSW visible
15 May ? 05:04:54 10° NW 05:09:14 38° NNE 05:13:15 10° ESE visible
15 May ? 06:44:38 10° NW 06:48:58 49° SW 06:50:04 38° S visible
16 May ? 05:17:32 10° NW 05:22:02 54° NE 05:25:19 16° ESE visible
16 May ? 06:57:33 10° WNW 07:01:24 29° WSW 07:02:07 28° SW visible
17 May ? 05:30:11 10° NW 05:34:45 82° NE 05:37:24 22° SE visible
17 May ? 07:10:47 10° WNW 07:13:43 18° WSW 07:14:13 17° WSW visible
18 May ? 04:03:14 10° NW 04:07:25 33° NNE 04:11:20 10° E visible
18 May ? 05:42:53 10° NW 05:47:19 62° SW 05:49:31 26° SSE visible
19 May ? 04:15:50 10° NW 04:20:15 45° NE 04:24:21 10° ESE visible
19 May ? 05:55:42 10° NW 05:59:48 37° WSW 06:01:40 24° S visible
20 May ? 04:28:27 10° NW 04:33:00 67° NE 04:37:03 11° SE visible
20 May ? 06:08:43 10° WNW 06:12:08 22° WSW 06:13:51 17° SSW visible
21 May ? 04:41:06 10° NW 04:45:37 78° SW 04:49:15 13° SE visible
21 May ? 06:22:21 10° W 06:24:22 13° WSW 06:26:04 11° SW visible
22 May ? 04:53:51 10° NW 04:58:07 47° SW 05:01:30 14° SSE visible
23 May ? 05:06:44 10° WNW 05:10:31 28° WSW 05:13:47 11° S visible
